DW5657 Weather Reports


Display with metric or nautical units.
time (UTC)temp
F
wind
direction
speed
MPH
gust
MPH
rain 1hr
in
rain 24hr
in
rain mn
in
humidity
%
barometer
mb
20180217191709 35 359 1.0 3.0 0.01 0.01 0.01 88 1014.8
20180217190709 35 359 2.0 3.0 0.00 0.00 0.00 87 1015.0
20180217185709 35 359 0.0 1.0 0.00 0.00 0.00 87 1015.6
20180217184708 35 359 0.0 0.0 0.00 0.00 0.00 86 1016.0
20180217183708 35 359 0.0 1.0 0.00 0.00 0.00 86 1016.5
20180217182709 35 359 0.0 0.0 0.00 0.00 0.00 86 1017.0
20180217181709 35 359 0.0 1.0 0.00 0.00 0.00 86 1017.4
20180217180708 35 359 0.0 1.0 0.00 0.00 0.00 86 1017.6
20180217175709 35 359 0.0 2.0 0.00 0.00 0.00 86 1017.7
20180217174709 35 359 0.0 3.0 0.00 0.00 0.00 85 1017.9
20180217173709 35 237 1.0 3.0 0.00 0.00 0.00 85 1017.9
20180217172709 35 260 1.0 3.0 0.00 0.00 0.00 84 1018.1
20180217171709 36 289 1.0 3.0 0.00 0.00 0.00 83 1018.6
20180217170709 36 288 1.0 2.0 0.00 0.00 0.00 83 1018.8
20180217165708 36 277 1.0 3.0 0.00 0.00 0.00 83 1019.0
20180217164709 36 309 2.0 5.0 0.00 0.00 0.00 82 1018.9
20180217163709 36 273 2.0 6.0 0.00 0.00 0.00 81 1019.1
20180217162709 36 288 1.0 3.0 0.00 0.00 0.00 81 1019.4
20180217161709 36 61 1.0 3.0 0.00 0.00 0.00 81 1019.4
20180217160709 36 42 1.0 3.0 0.00 0.00 0.00 81 1019.8
20180217155709 36 43 0.0 2.0 0.00 0.00 0.00 81 1020.3
20180217154709 36 297 0.0 2.0 0.00 0.00 0.00 81 1020.1
20180217153709 36 297 1.0 3.0 0.00 0.00 0.00 82 1019.7
20180217152709 36 312 1.0 3.0 0.00 0.00 0.00 82 1019.3
20180217151709 35 249 2.0 3.0 0.00 0.00 0.00 82 1019.0
20180217150709 35 301 1.0 5.0 0.00 0.00 0.00 82 1019.1
20180217145709 34 249 2.0 9.0 0.00 0.00 0.00 82 1019.2
20180217144709 34 240 3.0 5.0 0.00 0.00 0.00 82 1019.0
20180217143709 34 262 2.0 3.0 0.00 0.00 0.00 82 1019.8
20180217142709 34 244 3.0 3.0 0.00 0.01 0.00 82 1020.5
20180217141710 34 245 2.0 3.0 0.00 0.01 0.00 82 1020.7
20180217140709 34 218 2.0 3.0 0.00 0.01 0.00 82 1021.1
20180217135709 34 227 2.0 3.0 0.00 0.01 0.00 82 1021.0
20180217134709 34 272 1.0 3.0 0.00 0.02 0.00 82 1021.7
20180217133709 33 273 2.0 3.0 0.00 0.03 0.00 82 1021.8
20180217132709 33 273 1.0 3.0 0.00 0.03 0.00 82 1022.1
20180217131709 33 248 1.0 3.0 0.00 0.03 0.00 82 1021.8
20180217130709 33 248 2.0 3.0 0.00 0.03 0.00 82 1021.6
20180217125709 33 248 2.0 5.0 0.00 0.03 0.00 82 1020.8
20180217124709 33 249 2.0 5.0 0.00 0.04 0.00 83 1021.0
20180217123710 33 244 2.0 5.0 0.00 0.05 0.00 83 1021.2
20180217122709 33 245 2.0 3.0 0.00 0.05 0.00 83 1021.2
20180217121709 33 245 1.0 3.0 0.00 0.07 0.00 83 1021.5
20180217120709 33 245 1.0 2.0 0.00 0.08 0.00 83 1021.6
20180217115709 33 245 0.0 1.0 0.00 0.09 0.00 83 1021.6
20180217114709 33 245 0.0 1.0 0.00 0.10 0.00 83 1021.8
20180217113709 33 245 0.0 1.0 0.00 0.12 0.00 83 1022.0
20180217112709 33 245 1.0 2.0 0.00 0.13 0.00 83 1021.7
20180217111709 33 245 0.0 3.0 0.00 0.15 0.00 83 1021.8
20180217110709 33 245 1.0 2.0 0.00 0.16 0.00 83 1021.9
20180217105709 33 245 1.0 2.0 0.00 0.17 0.00 83 1022.1
20180217104709 33 245 1.0 2.0 0.00 0.18 0.00 83 1022.3
20180217103709 33 245 1.0 2.0 0.00 0.19 0.00 83 1022.2
20180217102709 33 245 1.0 2.0 0.00 0.19 0.00 83 1022.1
20180217101709 33 245 1.0 3.0 0.00 0.19 0.00 83 1022.2
20180217100709 33 245 1.0 3.0 0.00 0.20 0.00 83 1022.3
20180217095709 33 245 1.0 5.0 0.00 0.21 0.00 83 1022.2
20180217094709 33 262 2.0 3.0 0.00 0.22 0.00 83 1022.1
20180217093709 33 262 1.0 3.0 0.00 0.24 0.00 84 1022.3
20180217092708 33 200 1.0 3.0 0.00 0.25 0.00 84 1022.5
20180217091709 33 175 1.0 3.0 0.00 0.26 0.00 84 1022.7
20180217090709 33 170 1.0 2.0 0.00 0.27 0.00 83 1022.9
20180217085709 33 170 1.0 2.0 0.00 0.29 0.00 83 1022.8
20180217084709 33 165 0.0 0.0 0.00 0.30 0.00 82 1023.1
20180217083709 33 167 0.0 0.0 0.00 0.32 0.00 82 1023.3
20180217082709 33 166 0.0 0.0 0.00 0.33 0.00 82 1023.2
20180217081710 33 166 0.0 2.0 0.00 0.34 0.00 82 1023.4
20180217080709 33 166 0.0 1.0 0.00 0.35 0.00 82 1023.5
20180217075709 33 165 0.0 0.0 0.00 0.37 0.00 81 1023.5
20180217074709 33 164 0.0 0.0 0.00 0.39 0.00 82 1023.7
20180217073708 33 166 0.0 0.0 0.00 0.41 0.00 81 1023.7
20180217072709 33 167 0.0 0.0 0.00 0.43 0.00 81 1023.8
20180217071708 33 160 0.0 0.0 0.00 0.45 0.00 81 1023.8
20180217070710 33 152 0.0 0.0 0.00 0.45 0.00 81 1023.9
20180217065709 33 151 0.0 1.0 0.00 0.47 0.00 81 1023.8
20180217064708 34 151 0.0 0.0 0.00 0.49 0.00 81 1023.9
20180217063709 34 149 0.0 0.0 0.00 0.51 0.00 80 1023.8
20180217062709 34 147 0.0 0.0 0.00 0.52 0.00 80 1023.8
20180217061709 34 145 0.0 0.0 0.00 0.54 0.00 80 1023.9
20180217060709 34 145 0.0 0.0 0.00 0.56 0.00 80 1024.0
20180217055709 34 145 0.0 0.0 0.00 0.57 0.00 80 1024.1
20180217054709 34 145 0.0 0.0 0.00 0.59 0.00 80 1024.0
20180217053709 34 145 0.0 1.0 0.00 0.60 0.00 79 1024.1
20180217052708 34 147 0.0 3.0 0.00 0.61 0.00 79 1024.0
20180217051708 34 147 0.0 1.0 0.00 0.61 0.00 79 1024.0
20180217050709 34 146 0.0 1.0 0.00 0.61 0.00 78 1024.1
20180217045709 34 145 0.0 1.0 0.00 0.61 0.61 78 1024.1
20180217044708 34 140 0.0 0.0 0.00 0.63 0.61 78 1024.2
20180217043709 34 139 0.0 1.0 0.00 0.64 0.61 77 1024.3
20180217042710 34 139 0.0 1.0 0.00 0.70 0.61 77 1024.5
20180217041708 34 138 0.0 1.0 0.00 0.71 0.61 77 1024.4
20180217040710 35 138 0.0 1.0 0.00 0.73 0.61 77 1024.4
20180217035709 35 137 0.0 3.0 0.00 0.76 0.61 77 1024.4
20180217034708 35 111 0.0 2.0 0.00 0.96 0.61 76 1024.1
20180217033709 35 108 0.0 1.0 0.00 1.03 0.61 76 1024.2
20180217032708 35 108 0.0 1.0 0.00 1.03 0.61 75 1024.1
20180217031708 35 108 0.0 0.0 0.00 1.03 0.61 74 1024.4
20180217030709 35 108 0.0 1.0 0.00 1.03 0.61 74 1024.7
20180217025708 36 106 0.0 1.0 0.00 1.03 0.61 74 1024.2
20180217024709 36 105 0.0 2.0 0.00 1.03 0.61 74 1024.3
20180217023709 36 104 0.0 1.0 0.00 1.03 0.61 74 1024.3
20180217022708 36 104 0.0 2.0 0.00 1.03 0.61 73 1024.3
20180217021708 36 104 0.0 1.0 0.00 1.03 0.61 73 1024.4
20180217020709 36 104 0.0 1.0 0.00 1.03 0.61 73 1024.2
20180217015709 36 104 0.0 2.0 0.00 1.03 0.61 73 1024.2
20180217014709 37 104 0.0 3.0 0.00 1.03 0.61 73 1024.2
20180217013709 37 104 1.0 3.0 0.00 1.03 0.61 73 1024.1
20180217012708 37 104 0.0 3.0 0.00 1.04 0.61 73 1023.9
20180217011710 37 91 1.0 3.0 0.00 1.05 0.61 73 1023.9
20180217010708 37 126 2.0 5.0 0.00 1.05 0.61 73 1023.8
20180217005709 37 131 1.0 3.0 0.00 1.05 0.61 74 1023.7
20180217004708 37 128 1.0 3.0 0.00 1.05 0.61 74 1023.8
20180217003709 37 132 1.0 7.0 0.00 1.05 0.61 75 1023.7
20180217002708 38 163 2.0 3.0 0.00 1.05 0.61 75 1023.7
20180217001709 38 116 2.0 5.0 0.00 1.05 0.61 75 1023.6
20180217000709 38 117 1.0 6.0 0.00 1.05 0.61 75 1023.4
20180216235709 38 32 0.0 7.0 0.00 1.05 0.61 75 1023.5
20180216234708 38 116 2.0 7.0 0.00 1.05 0.61 75 1023.4
20180216233709 38 105 1.0 7.0 0.00 1.05 0.61 75 1023.3
20180216232708 38 131 2.0 5.0 0.00 1.05 0.61 75 1023.3
20180216231708 38 97 1.0 5.0 0.00 1.05 0.61 75 1023.3
20180216230709 38 124 1.0 5.0 0.00 1.05 0.61 74 1023.3
20180216225708 39 143 2.0 6.0 0.00 1.05 0.61 74 1023.0
20180216224708 39 151 3.0 12.0 0.00 1.05 0.61 74 1022.8
20180216223709 39 94 2.0 9.0 0.00 1.05 0.61 74 1022.7
20180216222709 39 131 2.0 7.0 0.00 1.05 0.61 74 1022.5
20180216221708 39 117 3.0 7.0 0.00 1.05 0.61 74 1022.2
20180216220708 39 148 2.0 5.0 0.00 1.05 0.61 74 1022.3
20180216215709 39 177 1.0 9.0 0.00 1.05 0.61 74 1022.0
20180216214708 39 128 2.0 9.0 0.00 1.05 0.61 74 1021.9
20180216213709 40 127 2.0 10.0 0.00 1.05 0.61 74 1021.8
20180216212708 40 120 2.0 9.0 0.00 1.05 0.61 74 1021.6
20180216211708 40 187 3.0 10.0 0.00 1.05 0.61 74 1021.3
20180216210709 40 114 3.0 8.0 0.00 1.05 0.61 74 1021.0
20180216205708 40 114 4.0 9.0 0.00 1.05 0.61 74 1020.9
20180216204709 41 163 3.0 10.0 0.00 1.05 0.61 74 1020.4
20180216203709 41 125 4.0 12.0 0.00 1.05 0.61 75 1020.4
20180216202709 41 142 2.0 7.0 0.00 1.06 0.61 76 1020.2
20180216201708 41 129 2.0 7.0 0.00 1.06 0.61 77 1020.1
20180216200709 41 132 3.0 14.0 0.00 1.06 0.61 77 1019.9
20180216195708 40 129 3.0 8.0 0.00 1.06 0.61 79 1019.7
20180216194709 40 155 4.0 12.0 0.00 1.06 0.61 80 1019.6
20180216193709 40 93 3.0 12.0 0.00 1.06 0.61 81 1019.3
20180216192708 40 126 4.0 9.0 0.00 1.06 0.61 81 1019.0